Theta_e
317 317 316 316 316 316 317 317 317 316 316 315 313 311 313 316 318 319 319 319 319 318 317 317 319 320 323 323 323 323 323 322 323 323 322 322 322 321 318 319 321 320 318 322 322 322 323
318 317 316 316 316 316 317 317 317 316 315 314 313 311 314 318 318 319 319 318 317 317 317 319 319 319 322 323 322 321 321 321 323 324 323 323 322 322 321 321 319 320 322 321 322 322 322
320 317 317 316 316 317 317 317 317 316 315 314 313 310 314 318 318 318 318 318 318 319 317 316 318 319 322 322 322 321 319 322 322 323 322 322 322 322 322 320 321 322 321 319 321 321 320
322 317 317 317 317 317 317 317 316 316 315 314 312 310 313 318 319 318 318 318 317 319 318 318 317 319 321 321 321 321 318 319 320 321 321 322 322 321 321 322 321 320 319 320 320 319 320
322 318 317 317 317 317 317 317 316 315 315 314 311 310 312 318 319 319 318 316 318 319 319 318 318 318 320 319 320 318 318 319 319 319 319 320 321 322 321 319 318 317 320 319 316 316 317
321 321 317 317 317 317 317 317 316 315 314 313 310 311 314 316 318 318 317 318 318 321 318 321 319 320 319 317 318 318 317 317 318 320 319 321 321 318 316 316 319 319 317 315 314 314 313
321 322 317 317 317 317 318 317 316 315 314 313 310 314 317 318 318 319 318 317 317 322 318 317 318 316 317 317 316 317 318 317 320 319 317 318 317 320 318 318 317 317 315 315 314 315 314
320 321 317 317 317 317 317 317 316 315 314 312 312 317 318 317 317 317 317 316 312 313 314 315 318 317 316 316 315 317 317 317 318 318 316 313 316 317 316 316 316 314 314 314 314 315 315
320 321 319 317 317 317 317 317 316 315 313 310 315 319 318 316 317 316 316 311 308 308 314 316 317 315 315 314 315 317 316 316 318 318 317 315 318 317 316 313 314 315 314 316 317 315 313
321 320 319 317 317 317 317 317 316 315 311 311 317 319 317 316 316 314 314 306 306 306 313 316 315 314 313 315 318 316 316 316 318 316 315 316 318 316 315 315 313 313 314 315 316 315 315
321 320 320 317 317 318 317 317 316 314 311 315 319 319 317 314 316 312 310 306 306 321 313 315 313 313 314 314 315 316 316 315 314 314 313 314 317 316 316 315 312 313 311 314 313 313 309
321 320 320 317 317 317 317 317 316 313 310 316 319 318 314 312 309 309 306 306 314 310 314 313 313 313 314 314 314 314 314 312 311 312 313 313 317 315 316 312 310 309 309 308 308 307 310
320 320 320 317 317 318 317 317 315 312 311 317 320 315 313 308 310 308 305 310 309 311 317 313 313 313 313 312 312 311 308 306 306 307 308 311 314 313 311 309 307 306 306 308 309 310 310
320 320 320 318 318 318 317 316 314 311 315 318 316 317 308 304 308 305 307 312 312 316 314 312 312 312 312 311 310 310 310 308 306 306 306 308 315 308 309 308 308 307 307 309 309 309 308
321 319 320 318 318 318 317 315 312 313 315 318 318 312 304 303 303 304 315 308 310 315 311 312 310 311 311 310 310 310 308 308 307 305 307 307 310 309 309 309 308 308 308 309 309 308 307
321 320 320 318 318 318 316 314 312 313 317 315 307 304 303 303 303 305 311 311 316 312 311 311 311 310 311 310 309 309 309 308 308 306 306 307 306 308 310 310 309 309 308 307 306 308 309
319 319 319 319 318 317 316 313 312 315 315 305 304 306 308 302 302 311 306 311 312 310 312 312 311 311 310 310 308 309 309 307 307 306 308 307 306 307 306 308 308 306 307 308 307 308 308
317 319 319 318 317 315 313 312 315 315 309 303 305 309 308 301 304 307 308 312 312 310 310 310 310 310 310 309 309 310 310 308 307 307 308 305 306 304 306 306 307 306 306 306 306 307 306
315 317 313 314 314 312 312 312 311 309 303 304 307 310 307 302 301 305 308 312 311 310 309 309 309 309 309 309 308 310 308 307 308 306 306 303 303 301 305 306 307 307 306 306 305 304 304
312 312 312 312 310 310 311 311 308 302 300 305 309 305 302 304 309 306 310 310 310 309 310 310 309 309 308 309 308 309 309 308 307 305 305 304 303 302 302 307 306 306 306 305 305 304 304
310 310 311 312 313 312 311 313 311 306 301 303 308 308 304 299 301 306 310 310 309 309 309 309 308 308 308 308 308 307 309 307 307 305 305 304 304 307 307 306 306 306 306 305 304 304 304
310 310 310 310 310 311 312 306 309 308 301 302 308 310 306 306 303 302 305 311 309 308 308 308 308 308 307 308 308 309 308 308 308 306 305 304 304 306 306 306 305 305 304 304 304 305 305
307 307 305 303 305 301 306 310 309 305 301 304 308 309 308 309 304 301 304 309 310 308 308 307 308 307 307 306 305 305 306 306 306 305 304 304 304 303 305 305 304 304 306 306 305 304 305
295 295 295 295 295 295 295 298 301 300 299 305 307 309 311 304 306 304 308 309 309 308 308 306 308 307 305 305 304 305 305 304 303 304 305 304 304 302 303 301 296 304 305 305 305 303 301
295 295 295 295 295 295 295 295 295 296 301 304 306 308 310 304 307 308 308 307 306 306 305 304 304 304 305 304 303 303 303 304 306 303 303 304 302 301 296 303 302 306 305 305 305 302 299
296 295 295 295 295 295 295 295 295 296 298 304 303 306 309 307 302 306 306 306 303 302 303 303 304 304 303 303 300 295 300 305 307 307 304 303 302 301 295 296 300 304 304 304 304 303 298
295 295 295 295 295 295 295 295 295 296 300 302 301 303 309 305 304 306 306 305 306 304 301 304 303 301 304 301 301 300 303 307 304 306 305 304 303 304 302 297 301 304 303 304 305 302 297
294 294 295 295 295 295 295 295 295 295 296 297 298 299 306 304 303 304 305 306 305 305 301 303 301 300 300 301 302 303 303 305 305 305 305 304 305 303 303 303 303 303 302 304 300 299 296
293 294 295 295 295 294 295 295 294 295 296 298 300 302 303 303 302 302 303 304 304 306 305 303 303 303 302 301 299 298 301 299 303 305 305 305 303 303 305 303 300 300 300 299 297 296 295
Wind_Speed
34 32 30 28 26 23 20 18 15 12 9 6 4 3 1 1 2 3 5 7 8 10 10 9 9 9 7 8 6 7 12 12 8 10 10 11 10 11 5 8 16 2 8 24 28 28 31
35 33 32 28 26 24 20 17 15 11 8 7 5 3 2 1 2 2 4 6 8 9 9 8 7 7 5 5 4 7 14 8 9 8 10 10 9 13 6 5 2 7 18 21 21 24 15
36 35 32 30 26 24 21 18 15 11 8 6 5 4 3 3 3 3 4 5 7 8 8 7 7 6 4 4 3 11 13 6 6 6 10 11 13 7 10 8 7 13 5 10 6 8 6
35 35 33 31 27 25 21 19 15 12 9 7 5 4 4 3 4 5 5 6 7 7 7 6 5 3 2 4 4 8 12 6 8 8 7 9 10 9 4 8 7 6 4 6 7 14 7
36 35 34 31 28 25 22 19 16 13 10 7 4 4 4 4 5 6 8 8 6 8 5 3 2 2 2 2 7 14 10 12 19 12 6 8 9 3 2 2 5 6 2 3 9 7 3
37 35 35 32 29 27 22 19 16 13 10 7 4 2 3 5 6 7 8 6 6 3 1 4 5 2 2 6 16 18 8 11 18 15 11 1 1 2 4 4 1 4 4 4 4 8 8
38 35 35 33 30 27 23 19 16 12 10 7 5 2 1 4 5 7 7 4 0 1 2 3 3 4 10 13 7 10 10 13 9 4 2 7 5 1 4 1 2 2 4 3 5 5 8
38 35 35 34 30 27 24 20 17 13 9 8 6 3 0 3 4 6 6 5 6 1 5 3 4 5 3 7 7 12 14 7 5 3 8 7 4 3 7 8 7 8 6 5 6 6 5
42 37 35 34 31 27 24 19 16 14 10 7 6 3 1 1 3 3 6 7 3 2 2 5 2 2 3 7 5 10 14 7 2 4 4 4 2 10 6 8 8 4 5 4 3 9 4
42 38 36 34 30 27 23 19 15 13 10 8 6 3 1 1 1 3 4 5 2 2 4 1 3 3 3 5 3 7 10 5 6 4 5 1 2 6 6 6 5 4 6 6 6 6 2
41 40 36 33 31 27 22 19 15 12 10 9 7 4 1 1 1 2 2 2 2 3 4 1 0 2 2 2 4 4 9 6 3 4 4 4 5 6 7 4 3 5 6 3 3 3 3
41 40 35 33 30 25 22 19 16 14 11 10 7 5 3 2 2 1 0 2 3 6 2 2 2 1 3 5 4 9 4 8 5 3 2 4 3 4 2 3 4 5 5 6 3 4 3
40 39 35 32 30 27 24 21 18 14 12 10 8 4 3 3 2 1 3 3 5 5 1 1 2 1 2 2 4 6 5 8 5 5 7 7 5 4 7 4 7 11 6 4 5 5 4
40 38 34 32 30 27 24 21 18 14 12 11 9 5 4 4 3 4 7 5 2 2 1 1 2 2 3 2 2 4 3 4 7 5 3 3 4 6 7 3 1 3 3 4 2 3 4
41 37 36 33 30 27 24 21 18 16 13 11 8 7 6 4 4 7 5 4 7 3 1 2 2 2 0 1 2 4 4 2 3 6 4 3 3 5 5 2 3 5 4 2 1 3 3
44 39 35 33 30 27 24 21 18 16 14 12 11 9 6 5 6 8 4 4 2 2 1 2 3 2 2 3 1 3 2 4 3 5 3 3 3 3 5 4 6 2 2 4 3 2 5
43 38 38 33 29 26 22 20 18 17 16 14 12 7 6 7 10 4 4 5 2 5 3 3 1 1 2 3 3 1 2 4 3 4 9 3 3 6 4 2 1 4 4 4 2 4 3
38 40 39 31 27 24 22 20 19 18 18 16 12 4 9 13 4 3 3 4 3 3 3 3 2 1 1 2 2 3 4 1 3 1 3 3 3 3 4 7 2 6 3 4 4 4 1
46 41 34 31 27 23 21 20 19 20 20 19 11 4 9 13 4 1 3 1 3 3 3 3 1 3 3 2 3 4 4 2 3 4 3 1 1 2 4 6 6 5 4 3 2 2 6
34 38 32 26 24 20 19 20 21 21 23 18 7 2 3 5 2 5 4 3 4 2 3 4 3 4 4 2 4 4 3 3 3 5 5 3 2 4 5 2 1 5 8 5 1 3 3
15 13 17 17 17 16 15 17 18 21 24 20 6 4 7 3 5 5 4 7 5 4 1 4 2 3 4 2 1 4 3 3 4 7 3 4 2 1 4 5 3 5 7 4 5 9 6
18 18 14 14 15 17 26 17 19 20 22 18 8 5 6 6 6 9 2 4 8 4 5 3 5 4 2 5 5 5 5 3 4 5 3 1 2 2 4 4 4 5 7 8 5 1 4
19 17 15 13 16 17 19 21 19 20 21 7 7 10 10 3 5 6 6 6 9 13 7 7 4 5 5 6 10 10 8 8 7 7 4 4 3 2 3 5 7 4 4 1 2 9 3
24 22 18 16 17 16 15 19 22 22 25 11 14 10 6 2 3 6 7 5 5 6 8 3 11 7 5 7 6 4 4 3 4 5 6 5 4 3 2 4 2 4 2 6 8 7 6
19 18 16 15 14 15 15 16 17 20 28 16 19 9 6 2 2 2 12 12 20 17 7 6 6 9 12 6 4 4 5 6 3 5 6 7 5 1 3 2 7 1 3 2 3 3 7
19 17 14 13 12 13 13 15 19 21 27 16 17 15 7 7 2 2 7 21 5 4 3 4 10 10 7 5 4 4 4 5 3 1 8 5 5 4 3 3 5 4 3 6 4 4 4
16 15 15 14 12 12 13 13 16 20 24 22 17 16 7 4 5 5 4 6 10 8 4 5 6 4 5 3 3 3 4 3 4 7 5 3 2 6 3 3 7 3 4 2 2 2 8
13 13 14 13 12 10 10 10 11 13 18 22 21 19 13 5 8 4 4 7 10 11 5 10 6 0 3 2 3 3 3 4 2 3 6 8 6 4 3 2 8 3 2 2 2 6 6
11 11 11 11 10 10 11 10 9 13 16 15 19 17 14 10 8 11 11 10 9 10 10 17 3 6 9 3 0 2 1 1 2 3 1 3 6 5 7 5 8 11 12 8 2 2 4
Wind_Direction
200 201 202 199 194 194 192 190 189 190 188 191 204 222 206 21 9 1 359 3 0 356 352 356 3 17 75 86 53 355 350 351 11 355 346 345 357 360 358 328 344 63 335 328 327 325 319
200 200 199 199 196 193 194 192 191 192 193 196 204 222 236 260 320 336 347 353 357 357 355 357 4 10 79 92 57 343 340 351 357 339 341 341 327 338 304 321 306 324 317 308 318 319 330
200 199 198 199 197 194 194 193 192 190 195 210 223 230 234 267 305 318 340 350 354 357 355 0 0 11 88 67 320 313 348 353 349 337 344 327 323 335 322 310 324 308 327 326 335 359 360
199 198 198 198 199 195 195 194 194 191 191 201 225 246 248 272 300 314 325 329 337 342 337 350 353 13 103 76 316 349 343 1 331 295 312 300 328 309 270 288 334 332 51 358 307 7 10
197 197 198 196 199 195 195 196 197 196 195 200 214 246 267 283 295 301 310 316 324 324 316 339 16 69 73 302 314 351 344 338 338 336 279 291 289 311 317 43 1 11 337 325 320 57 337
195 197 197 196 195 195 197 197 199 199 201 201 209 238 288 295 305 309 317 323 321 334 67 106 47 50 17 333 318 321 325 320 320 321 338 6 211 34 22 70 238 312 343 316 316 326 11
194 196 197 195 197 195 196 194 195 202 207 205 200 202 280 303 317 329 328 336 237 232 39 324 320 301 313 328 359 20 357 323 335 335 331 341 76 259 247 297 26 3 39 349 296 343 25
192 196 195 197 196 196 197 194 193 193 205 211 201 187 171 322 319 345 2 68 69 3 319 329 269 317 322 343 323 4 357 8 354 341 336 22 64 299 71 33 46 60 50 346 295 321 20
191 194 196 195 195 195 198 197 195 191 193 202 208 191 157 286 321 349 41 64 50 353 16 356 51 20 342 345 338 354 354 346 329 14 18 121 269 61 74 37 33 356 48 337 268 333 36
189 192 195 194 194 196 194 199 196 194 189 188 206 209 199 176 239 19 63 55 48 80 72 319 24 4 359 344 3 351 6 11 0 20 350 51 354 87 67 51 35 345 339 315 327 4 320
188 190 193 192 192 194 190 197 195 197 193 186 196 198 227 184 181 46 16 54 91 94 34 202 50 341 317 356 347 359 359 16 51 318 57 266 333 61 68 35 3 257 317 283 234 192 57
185 187 190 192 192 190 190 194 195 192 195 189 191 200 196 229 238 240 115 132 120 47 255 111 133 34 8 29 15 354 50 31 48 16 343 250 8 41 83 123 55 287 330 6 43 103 72
183 186 188 191 190 189 190 193 192 190 187 192 183 208 215 203 197 171 155 144 45 117 249 118 128 58 195 26 359 31 68 38 39 19 12 353 21 335 38 39 355 30 34 359 6 11 219
185 185 186 190 189 190 190 191 190 185 188 187 179 191 217 219 171 157 158 56 144 183 99 183 108 27 99 30 9 36 61 32 16 43 68 27 314 360 338 98 293 337 97 124 282 277 258
185 186 186 188 189 189 189 190 186 184 185 183 170 183 209 191 174 162 153 71 199 228 279 91 83 139 231 48 98 78 68 88 20 34 81 28 199 314 45 30 88 315 45 181 193 321 6
188 186 186 187 188 188 189 190 186 183 180 176 172 178 173 177 165 159 84 212 189 109 60 79 134 149 143 212 103 104 98 343 107 47 25 322 313 333 299 18 2 101 258 19 10 322 296
177 180 180 184 185 188 188 189 186 182 179 173 166 148 165 162 154 145 148 217 124 75 114 46 73 5 133 158 153 94 62 2 36 349 70 30 87 295 359 64 349 7 7 22 109 136 198
193 182 173 176 180 183 183 184 182 179 178 167 157 102 158 156 111 105 156 199 128 152 81 99 110 316 68 138 160 79 129 78 53 25 63 341 123 291 272 276 326 101 96 68 94 298 243
169 170 164 171 174 178 179 182 179 178 175 163 147 110 169 176 134 232 262 162 89 154 168 129 154 95 19 86 117 109 100 96 92 77 126 61 44 349 359 351 14 35 56 106 229 137 201
160 162 165 168 168 169 177 181 179 176 174 167 151 97 119 191 146 148 161 191 144 84 118 126 125 100 61 71 38 149 121 189 99 107 113 106 135 178 203 119 343 308 329 352 163 244 230
155 164 158 174 183 176 171 186 186 182 182 181 165 194 170 193 239 184 164 186 150 164 120 123 86 152 157 162 142 147 105 110 79 147 105 111 163 270 287 307 303 269 282 287 255 245 228
168 171 176 180 178 189 204 196 189 187 189 186 168 164 161 167 163 178 167 221 163 170 142 210 139 212 108 153 192 181 143 153 178 201 158 156 242 58 297 332 335 287 284 252 254 20 285
159 153 162 178 187 185 193 205 212 202 197 190 184 160 182 161 148 125 197 216 197 131 59 76 193 99 93 152 112 91 92 108 139 155 172 134 127 85 266 339 338 315 209 37 75 49 354
136 143 147 156 166 168 181 191 203 200 197 193 178 165 178 243 157 190 188 187 150 161 132 96 101 107 129 125 105 89 67 114 162 154 155 137 114 121 243 19 353 221 349 125 103 84 48
129 132 146 151 155 160 166 174 188 194 186 196 185 176 180 181 200 107 134 116 100 104 88 88 65 115 142 121 62 27 348 5 256 204 182 153 124 128 136 221 293 334 109 166 194 127 45
132 136 133 130 134 149 161 171 178 188 193 189 189 184 172 145 325 106 116 139 132 111 62 96 116 140 133 87 81 150 215 226 237 115 188 138 116 132 95 156 231 199 195 300 180 212 24
138 132 125 124 128 130 145 170 181 188 188 192 193 193 181 118 51 120 135 169 138 114 105 139 156 130 149 105 104 164 241 213 208 173 174 155 187 196 165 223 282 285 327 294 120 232 20
137 130 126 121 121 121 126 141 162 178 190 200 197 195 191 130 74 93 142 154 151 150 136 152 93 206 70 123 137 214 181 229 229 213 175 175 169 189 150 213 269 353 38 157 160 324 331
128 121 117 116 110 121 127 127 136 153 167 184 176 179 182 165 129 116 116 116 136 152 140 167 126 150 172 112 103 97 291 360 157 244 233 208 190 178 177 211 116 75 122 151 149 118 10